Location: Norwich
(42.5310°N, 75.5240°W)
Time: 20:23:04
(UTC-04:00)

OTV 5 (USA 277) - Visible Passes

Search period start: 22 October 2019 00:00
Search period end: 01 November 2019 00:00
Orbit: 310 x 324 km, 54.5° (Epoch: 17 October)

Date Brightness Start Highest point End Pass type
(mag) Time Alt. Az. Time Alt. Az. Time Alt. Az.
22 Oct ? 06:07:29 10° SSW 06:07:29 10° SSW 06:07:35 10° SSW visible
27 Oct ? 18:55:40 10° SSE 18:56:40 11° SE 18:56:48 11° SE visible
28 Oct ? 19:08:33 10° SSW 19:11:00 30° SE 19:11:24 28° ESE visible
29 Oct ? 19:22:44 10° SW 19:25:27 87° NW 19:25:53 60° NE visible
30 Oct ? 19:37:33 10° W 19:40:04 32° NNW 19:40:14 32° NNW visible
31 Oct ? 19:52:53 10° WNW 19:54:30 17° NW 19:54:30 17° NW visible
